Location: Mahannah Oil Field
(37.4664°N, 96.6003°W)
Time: 22:36:08
(UTC+00:00)

Courier 1B Rocket - Pass Details

Date: 26 January 2021
Orbit: 920 x 1202 km, 28.2° (Epoch: 08 March)

Event Time Altitude Azimuth Distance (km) Brightness Sun altitude
Exits shadow 12:38:56 - 239° (WSW) 3,514 7.5 -11.2°
Reaches altitude 10° 12:41:25 10° 230° (SW) 2,714 7.0 -10.7°
Maximum altitude 12:47:13 34° 168° (SSE) 1,621 6.5 -9.6°
Drops below altitude 10° 12:53:25 10° 107° (ESE) 2,896 9.2 -8.4°
Sets 12:56:31 0° 98° (E) 3,901 10.3 -7.8°
